Location: Mainz-Finthen
(49.9906°N, 8.1713°E)
Time: 07:30:51
(UTC+00:00)

N. Korean satellite - Pass Details

Date: 03 December 2022
Orbit: 407 x 442 km, 97.3° (Epoch: 04 February)

Event Time Altitude Azimuth Distance (km) Brightness Sun altitude
Rises 04:08:59 0° 23° (NNE) 2,524 10.5 -27.5°
Reaches altitude 10° 04:11:19 10° 37° (NE) 1,638 9.6 -27.2°
Maximum altitude 04:14:16 25° 94° (E) 983 8.8 -26.7°
Drops below altitude 10° 04:17:11 10° 152° (SSE) 1,608 9.5 -26.2°
Sets 04:19:27 0° 166° (SSE) 2,467 10.4 -25.9°
